Вернуться в каталог

INTELSAT 33E DEB

АктивенMEO
NORAD 64408·DEBRIS· XX

Запущен Aug 24, 2016 с Guiana Space Centre

Loading…

Ближайшие Пролёты (ближайшие 24 часа)

TLE

СвежийSource: Space-Track

Эпоха: Sep 13, 2026, 17:28 UTC

1 64408U 16053AN  26256.72846442 -.00000062  00000-0  00000-0 0  9994
2 64408   3.1600  85.2169 0760725   1.6991 358.9341  1.03213769  6997

Отслеживайте INTELSAT 33E DEB в реальном времени с AllMySat

Download on the App Store